Weather Roundup
Issued by NWS

Home | Current Version | Previous Version | Graphics & Text | Print | Product List | Glossary Off
Versions: 1 2 3 4 5 6 7 8 9 10 11 12 13 14 15 16 17 18 19 20 21 22 23 24 25 26 27 28 29 30 31 32 33 34 35 36 37 38 39 40 41 42 43 44 45 46 47 48 49 50

178
NZUS93 KARX 080310
HRRWXR

CURRENT HOURLY OBSERVATIONS ACROSS
MUCH OF THE UPPER MISSISSIPPI VALLEY
NATIONAL WEATHER SERVICE LA CROSSE WI
900 PM CST SUN FEB 07 2016


...SOUTHEAST MINNESOTA...


CITY           SKY/WX    TMP DP  RH WIND       PRES   REMARKS
ROCHESTER      CLOUDY    26  17  68 NW33G40   29.69R WCI   9
ROCHESTER/MAYO CLOUDY    26  18  71 NW30G46   29.68S WCI  10
WINONA         CLOUDY    34  27  75 NW16G24   29.67S WCI  23
AUSTIN         CLOUDY    28  21  74 NW26G35   29.72S WCI  13
ALBERT LEA     CLOUDY    27  21  80 NW20G26   29.75R WCI  13
DODGE CENTER   CLOUDY    25  19  80 NW24G31   29.71R WCI   9
PRESTON        LGT SNOW  28  23  81 NW25      29.68R WCI  14
OWATONNA       LGT SNOW  25  19  80 W24G33    29.74S WCI   9
FARIBAULT      LGT SNOW  25  21  86 W16G28    29.75S WCI  12
$$

...ELSEWHERE IN MINNESOTA...


CITY           SKY/WX    TMP DP  RH WIND       PRES   REMARKS
MINNEAPOLIS    LGT SNOW  20  12  71 NW28G36   29.75R WCI   2
INTNL FALLS    LGT SNOW  13   9  84 W13       29.74R FOG     WCI  -2
DULUTH         LGT SNOW  22  17  81 NW18G26   29.59R BLWGSNOWWCI   7
RED WING       LGT SNOW  25  21  86 NW16G26   29.71R WCI  12
REDWOOD FALLS  LGT SNOW  21  16  81 N22G31    29.87R WCI   5
MANKATO        CLOUDY   N/A N/A N/A NW29G37   29.79R
WORTHINGTON    CLOUDY   N/A N/A N/A NW28G33   29.88R
FAIRMONT       CLOUDY    27  16  63 NW22      29.81R WCI  12
$$

...SOUTHWEST WISCONSIN...


CITY           SKY/WX    TMP DP  RH WIND       PRES   REMARKS
LA CROSSE      CLOUDY    36  30  79 W12       29.64F WCI  28
PRAIRIE DU CHI CLOUDY    35  29  79 W12       29.69F WCI  27
BOSCOBEL       CLOUDY    37  31  78 SW10      29.68F WCI  30
LONE ROCK      CLOUDY    36  28  73 W8        29.67F WCI  30
PLATTEVILLE    CLOUDY    34  30  85 SW13      29.69F WCI  25
FORT MC COY    CLOUDY    35  31  84 W6        29.63F WCI  30
CAMP DOUGLAS   MOCLDY    35  35 100 SW10      29.61F WCI  28
VIROQUA        CLOUDY    33  32  93 W9        29.63F WCI  26
WIS DELLS      CLOUDY    35  27  74 SW10      29.63F WCI  27
$$

...ELSEWHERE IN WISCONSIN...


CITY           SKY/WX    TMP DP  RH WIND       PRES   REMARKS
MILWAUKEE      PTCLDY    36  26  67 W10       29.67F WCI  28
MADISON        MOCLDY    33  27  78 VRB6      29.66F WCI  28
GREEN BAY      CLOUDY    37  28  70 S6        29.60F WCI  32
EAU CLAIRE     LGT SNOW  28  23  81 W12G23    29.64R WCI  18
BLACK RVR FLS  CLOUDY    37  29  75 W8        29.61S WCI  30
MEDFORD        LGT SNOW  32  31  98 SW8       29.53F WCI  24
WAUSAU         CLOUDY    36  26  67 SW9       29.54F WCI  29
WIS RAPIDS     CLOUDY    36  25  64 W8        29.60F WCI  30
MARSHFIELD     CLOUDY    35  27  72 SW12      29.56F WCI  27
RICE LAKE      LGT SNOW  26  23  87 W12G18    29.64R WCI  16
$$

...NORTHEAST IOWA...


CITY           SKY/WX    TMP DP  RH WIND       PRES   REMARKS
WATERLOO       CLOUDY    34  29  82 W20G29    29.74F WCI  23
DUBUQUE        CLOUDY    33  28  81 W15       29.70F WCI  23
DECORAH        LGT SNOW  34  34 100 W8G16     29.67S WCI  27
MASON CITY     MIX PCPN  28  24  85 NW26G35   29.78R FOG     WCI  13
CHARLES CITY   LGT SNOW  32  32 100 NW30      29.74R WCI  18
OELWEIN        CLOUDY    34  34 100 W17       29.71F WCI  23
$$

...ELSEWHERE IN IOWA...


CITY           SKY/WX    TMP DP  RH WIND       PRES   REMARKS
DES MOINES     FLURRIES  34  29  82 NW22G28   29.85S WCI  22
IOWA CITY      MOCLDY    34  29  82 W10       29.80F WCI  26
FORT DODGE     CLOUDY    30  23  74 NW17G24   29.84S WCI  18
MARSHALLTOWN   CLOUDY    33  30  88 NW25G31   29.78S WCI  20
CEDAR RAPIDS   LGT SNOW  33  33 100 W15       29.75F FOG     WCI  23
$$

...NORTHERN ILLINOIS...


CITY           SKY/WX    TMP DP  RH WIND       PRES   REMARKS
CHICAGO-OHARE  PTCLDY    35  27  72 W12       29.72F WCI  27
CHICAGO-MIDWAY PTCLDY    38  26  62 W12       29.74F WCI  30
MOLINE         CLEAR     35  26  69 W14       29.77F WCI  26
ROCKFORD       PTCLDY    34  28  79 W8        29.74F WCI  27
PEORIA         PTCLDY    35  25  66 SW5       29.81F WCI  31
$$

NOTE: "FAIR" INDICATES FEW OR NO CLOUDS BELOW 12,000 FEET WITH NO
SIGNIFICANT WEATHER AND/OR OBSTRUCTIONS TO VISIBILITY. WIND
SPEEDS ARE IN MILES-PER-HOUR.




USA.gov is the U.S. government's official web portal to all federal, state and local government web resources and services.